Other Public Products
Issued by NWS Charleston, SC

Current Version | Previous Version | Graphics & Text | Print | Product List | Glossary On
Versions: 1 2 3 4 5 6 7 8 9 10 11 12 13 14 15 16 17 18 19 20 21 22 23 24 25 26 27 28 29 30 31 32 33 34 35 36 37 38 39 40 41 42 43 44 45 46 47 48 49 50
968
FPUS82 KCHS 212127
OPUCHS

TEST...KCHS/KSAV Gateway Observations...TEST
National Weather Service Charleston SC
500 PM EDT SAT APR 21 2018

NOTE: "fair" indicates few or no clouds below 12,000 feet with no
significant weather and/or obstructions to visibility.

SCZ050-WAZ558-NCZ071-TXZ119-213-PAZ071-DCZ001-FLZ074-172-MI076-
NYZ176-178-MAZ016-IL014-TNZ027-NJZ106-GAZ044-MD014-212200-

...Gateway Observations for Charleston International...

CITY           SKY/WX    TMP DP  RH WIND       PRES   REMARKS
Chas Airport   FAIR      68  50  52 E16       30.31F
Seattle        LGT RAIN  51  37  58 N15       30.40R
Charlotte      FAIR      70  32  24 SW7       30.31F
Dallas DFW     CLOUDY    64  61  90 W3        29.90S
Dallas Love    CLOUDY    65  62  90 S6        29.91F
Philladelphia  CLOUDY    59  25  27 NW10      30.32S
Wash National  PTSUNNY   60  31  33 SE5       30.35F
Baltimore      PTSUNNY   60  25  26 W6        30.33F
Miami          PTSUNNY   82  67  60 E6        30.06F
Detroit        CLOUDY    56  25  30 S3        30.41F
Newark         PTSUNNY   63  33  32 NW13      30.26F
Laguardia      PTSUNNY   62  21  20 NW7       30.26S
J F K          PTSUNNY   53  36  52 S18       30.28S
Boston Logan   FAIR      58  19  22 N12G24    30.19R
Ft. Lauderdale CLOUDY    80  72  76 E12       30.06F
Chicago O`Hare CLOUDY    54  22  28 E8        30.38F
Chicago Midway CLOUDY    52  26  36 NE9       30.39F
Houston Bush   CLOUDY    73  67  81 SE17G26   29.94F
Houston Hobby  CLOUDY    74  68  81 S17G25    29.94F
Nashville      PTSUNNY   74  33  22 SE6       30.20F
Atlanta        PTSUNNY   72  44  36 E9        30.24F

$$

GAZ044-118-TXZ119-213-NCZ071-DCZ001-MDZ014-506-PAZ021-071-NJZ106-
NYZ176-178-MAZ106-OHZ011-021-055-MIZ076-KYZ091-ILZ014-INZ047-
MNZ060-ONZ431-212200-

...Gateway Observations for Savannah International...

CITY           SKY/WX    TMP DP  RH WIND       PRES   REMARKS
Savannah Arpt  PTSUNNY   71  54  54 E20       30.28F
Atlanta        PTSUNNY   72  44  36 E9        30.24F
Charlotte      FAIR      70  32  24 SW7       30.31F
Dallas DFW     CLOUDY    64  61  90 W3        29.90S
Houston Bush   CLOUDY    73  67  81 SE17G26   29.94F
Wash National  PTSUNNY   60  31  33 SE5       30.35F
Wash Dulles    CLOUDY    61  23  23 W3        30.34F
Baltimore      PTSUNNY   60  25  26 W6        30.33F
Philadelphia   CLOUDY    59  25  27 NW10      30.32S
Newark         PTSUNNY   63  33  32 NW13      30.26F
Laguardia      PTSUNNY   62  21  20 NW7       30.26S
J F K          PTSUNNY   53  36  52 S18       30.28S
Boston         FAIR      58  19  22 N12G24    30.19R
Pittsburg      CLOUDY    55  19  24 E6        30.34F
Akron          PTSUNNY   57  17  21 NE5       30.37F
Cleveland      CLOUDY    47  26  44 NE8       30.43F
Cincinnati     CLOUDY    62  19  19 NE8       30.31F
Columbus       FAIR      58  23  26 NE9       30.34S
Detroit        CLOUDY    56  25  30 S3        30.41F
Chicago O`Hare CLOUDY    54  22  28 E8        30.38F
Minneapolis    FAIR      59  18  20 VRB5      30.34F
Indianapolis   PTSUNNY   60  21  22 NE9       30.32F
Toronto Canada MOSUNNY   55  19  24 NW8       30.37F

$$




USA.gov is the U.S. government's official web portal to all federal, state and local government web resources and services.